Location: Sihaung
(22.8641°N, 94.0549°E)
Time: 12:50:05
(UTC+00:00)

METEOR-M - Pass Details

Date: 03 March 2021
Orbit: 815 x 820 km, 98.5° (Epoch: 17 April)

Event Time Altitude Azimuth Distance (km) Brightness Sun altitude
Rises 22:15:20 0° 8° (N) 3,340 7.5 -25.6°
Reaches altitude 10° 22:17:42 10° 6° (N) 2,405 6.7 -25.0°
Maximum altitude 22:22:58 68° 284° (WNW) 873 4.0 -23.8°
Enters shadow 22:24:41 43° 217° (SW) 1,136 4.5 -23.4°
